Location: Muenchen
(48.1800°N, 11.5800°E)
Time: 22:38:27
(UTC+02:00)

Vanguard 2 Rocket - Visible Passes

Search period start: 01 October 2016 00:00
Search period end: 11 October 2016 00:00
Orbit: 556 x 3327 km, 32.9° (Epoch: 01 October)

Date Brightness Start Highest point End Pass type
(mag) Time Alt. Az. Time Alt. Az. Time Alt. Az.
01 Oct 10.5 05:09:46 10° S 05:15:47 13° SSE 05:20:50 10° SE visible
02 Oct 10.8 04:14:40 10° SSE 04:15:52 10° SSE 04:17:00 10° SE visible
02 Oct 10.0 06:19:47 10° SSW 06:30:09 23° SSE 06:37:27 10° ESE visible
03 Oct 10.3 05:19:49 10° SSW 05:30:16 21° SSE 05:38:03 10° ESE visible
04 Oct 10.5 04:20:38 10° S 04:30:13 17° SSE 04:37:54 10° ESE visible
04 Oct 9.8 06:32:21 10° SW 06:44:42 30° SSE 06:52:52 10° ESE visible
05 Oct 10.7 03:22:58 10° SSE 03:30:04 13° SE 03:36:17 10° ESE visible
05 Oct 10.0 05:31:40 10° SSW 05:44:43 28° SSE 05:53:49 10° ESE visible
06 Oct 10.2 04:32:51 12° SSW 04:44:33 25° SSE 04:54:17 10° ESE visible
06 Oct 9.7 06:45:33 10° SW 06:59:11 35° S 07:07:53 10° ESE visible
07 Oct 10.4 03:37:12 16° S 03:44:15 21° SSE 03:54:02 10° ESE visible
07 Oct 9.8 05:44:24 10° SW 05:59:09 34° SSE 06:09:02 10° ESE visible
08 Oct 10.6 02:41:28 16° SSE 02:43:55 16° SE 02:52:34 10° ESE visible
08 Oct 10.0 04:47:19 17° SSW 04:58:51 32° SSE 05:09:46 10° ESE visible
09 Oct 10.8 01:45:41 11° SE 01:45:41 11° SE 01:47:52 10° ESE visible
09 Oct 10.2 03:51:31 23° S 03:58:23 28° SSE 04:10:00 10° ESE visible
09 Oct 9.7 05:57:42 10° SW 06:13:32 39° S 06:23:56 10° ESE visible
10 Oct 10.4 02:55:39 23° SSE 02:57:53 24° SSE 03:09:30 10° ESE visible
10 Oct 9.8 05:01:29 20° SW 05:13:08 38° SSE 05:24:49 10° ESE visible
